{"data":{"norad_id":67995,"intl_designator":"2026-039K","name":"STARLINK-36968","alt_names":[],"object_type":"PAYLOAD","status":"ACTIVE","operator":null,"country":"US","launch_date":"2026-02-27","launch_site_code":"AFETR","launch_vehicle":null,"mission":null,"orbit_class":"UNKNOWN","rcs_meters":null,"size_class":null,"mass_kg":null,"dimensions":null,"purposes":["comms"],"wikipedia_slug":null,"has_3d_model":false,"image_url":null,"decayed_at":null,"tle_current":{"epoch":"2026-09-20T01:35:52.958688Z","epoch_age_seconds":97105,"freshness":"FRESH","line1":"1 67995U 26039K   26263.06658517  .00008287  00000+0  31030-3 0  9997","line2":"2 67995  43.0024  30.9700 0001181 278.5667  81.5051 15.27584825 31430","mean_motion":15.27584825,"eccentricity":0.0001181,"inclination_deg":43.0024,"raan_deg":30.97,"arg_perigee_deg":278.5667,"mean_anomaly_deg":81.5051,"bstar":0.0003103,"rev_number":3143,"period_min":94.266450964515,"perigee_km":482.22434392023,"apogee_km":483.84495266356,"semimajor_km":6861.1716482919,"source":"CELESTRAK","updated_at":"2026-09-20T09:00:43.736407Z"}}}